Overview Statistics Trail Chart Weather Telemetry Raw packets
 

This is the latest recevied weather packets stored in our database for station/object N3FWE. If no packets are shown the sender has not sent any weather packets the latest 10 day(s).

<< 1 2 3 4 5 6 >>
Time Temp. Humidity Pressure Rain* Wind** Luminosity Snow
1788569404 26.67° C 77% 1013.1 hPa 0 mm - - -
1788568804 26.67° C 76% 1013.2 hPa 0 mm - - -
1788568204 26.67° C 75% 1013.1 hPa 0 mm - - -
1788567603 26.67° C 75% 1013 hPa 0 mm - - -
1788567003 27.22° C 74% 1012.8 hPa 0 mm - - -
1788566404 27.22° C 74% 1012.8 hPa 0 mm - - -
1788565805 27.22° C 74% 1012.7 hPa 0 mm - - -
1788565203 27.78° C 74% 1012.8 hPa 0 mm - - -
1788564604 27.78° C 73% 1012.8 hPa 0 mm - - -
1788564003 28.33° C 74% 1012.7 hPa 0 mm - - -
1788563403 28.33° C 73% 1012.9 hPa 0 mm - - -
1788562804 28.89° C 72% 1012.9 hPa 0 mm - - -
1788562203 28.89° C 71% 1012.9 hPa 0 mm - - -
1788561603 29.44° C 70% 1012.8 hPa 0 mm - - -
1788561003 29.44° C 69% 1012.9 hPa 0 mm - - -
1788560403 29.44° C 69% 1012.8 hPa 0 mm - - -
1788559803 29.44° C 67% 1012.8 hPa 0 mm - - -
1788559204 29.44° C 67% 1012.8 hPa 0 mm - - -
1788558603 29.44° C 66% 1013.1 hPa 0 mm - - -
1788558003 30° C 65% 1013.4 hPa 0 mm - - -
1788557404 30° C 66% 1013.7 hPa 0 mm - - -
1788556803 29.44° C 65% 1013.7 hPa 0 mm - - -
1788556203 30° C 64% 1013.5 hPa 0 mm - - -
1788555603 30° C 62% 1013.4 hPa 0 mm - - -
1788555003 30° C 63% 1013.5 hPa 0 mm - - -

* Rain latest hour (hover to see other rain measurements)
** Current wind speed in m/s (hover to see current wind gust speed)